[[{"header":{"parameterUnit":"m.s-1","parameterCategory":1,"la1":30.2991,"la2":30.254,"lo1":-89.0895,"lo2":-89.0444,"dy":0.0017,"dx":0.0017,"nx":28,"ny":28,"refTime":"2025-01-23T09:00:00:Z","depth":0,"parameterNumber":2,"parameterNumberName":"U-component_of_WINDS"},"data":[0,0,0,0,0,0,0,0,0,0,0,0,0,0,0,0,0,0,0,0,0,0,0,0,0,0,0,0,0,0,0,0,0,0,0,0,0,0,0,0,0,0,0,0,0,0,0,0,0,0,0,0,0,0,0,0,0,0,0.1828,0.1828,0,0.1876,0.1876,0.1877,0.19,0.19,0.1899,0.1899,0.1948,0.195,0.1951,0,0,0,0,0,0,0,0,0,0,0,0,0,0.1756,0.1758,0.1828,0.1828,0.1829,0.1876,0.1876,0.1877,0.19,0.19,0.1899,0.1899,0.1948,0.195,0.1951,0,0,0,0,0,0,0,0,0,0,0,0,0,0.1794,0.1758,0.1828,0.1846,0.1848,0.1876,0.1876,0.1877,0.19,0.19,0.1899,0.1899,0.1947,0.1949,0.1951,0.1965,0,0,0.1957,0.1958,0,0,0,0,0,0,0,0,0.1792,0.1797,0.1843,0.1845,0.1847,0.1882,0.1869,0.1907,0.19,0.188,0.1899,0.1899,0.1926,0.193,0.1939,0.1967,0.1969,0.1958,0.1959,0.196,0.196,0,0,0,0,0,0,0,0.1789,0.1795,0.1847,0.1843,0.1846,0.1852,0.1857,0.1876,0.1903,0.1882,0.1883,0.1889,0.1927,0.1937,0.194,0.197,0.1958,0.1959,0.1961,0.1961,0.2013,0.2013,0,0,0,0,0,0,0.1784,0.1792,0.1845,0.1848,0.1819,0.1853,0.1859,0.1871,0.1903,0.1907,0.1889,0.189,0.1934,0.1938,0.1942,0.1961,0.196,0.1962,0.1963,0.2012,0.2013,0.2013,0,0,0,0,0,0,0.1782,0.1788,0.1843,0.1821,0.1828,0.1855,0.1867,0.1872,0.1881,0.1908,0.1913,0.1894,0.1934,0.1939,0.1959,0.1963,0.1962,0.1964,0.2012,0.2012,0.2013,0.1997,0,0,0,0,0,0,0.178,0.1787,0.1792,0.1821,0.1829,0.1859,0.1867,0.1873,0.1885,0.1886,0.1914,0.1918,0.1934,0.1956,0.1961,0.1966,0.1966,0.2012,0.2012,0.2013,0.1998,0.1997,0.1997,0,0,0,0,0,0.1777,0.1786,0.1793,0.1799,0.1836,0.1859,0.1864,0.1882,0.1885,0.189,0.1908,0.1918,0.1962,0.1958,0.1964,0.1969,0.2012,0.2012,0.2013,0.1998,0.1997,0.1997,0,0,0,0,0,0,0.1757,0.179,0.1798,0.1815,0.1835,0.1863,0.187,0.1881,0.1899,0.19,0.1922,0.1928,0.1946,0.1959,0.1955,0.1984,0.1988,0.1989,0.1975,0.1974,0.1974,0.197,0.1968,0,0,0,0,0,0.1754,0.177,0.1798,0.1811,0.1821,0.1844,0.1855,0.1867,0.1888,0.1896,0.1914,0.1934,0.1953,0.1964,0.1982,0.2,0.2007,0.2006,0.2006,0.2005,0.2006,0.2018,0.2018,0.2014,0.2014,0.2014,0,0,0.1749,0.1769,0.1778,0.1808,0.1824,0.1841,0.185,0.1867,0.188,0.1898,0.1918,0.1933,0.1956,0.1975,0.1985,0.1987,0.2009,0.2006,0.2005,0.2007,0.2018,0.2019,0.2019,0.2014,0.2014,0.2014,0,0,0.1749,0.1765,0.1779,0.1795,0.182,0.1835,0.1838,0.1866,0.1877,0.1897,0.1912,0.1927,0.1958,0.1975,0.1987,0.1995,0.2005,0.2,0.1997,0.2008,0.2008,0.2009,0.2012,0.2013,0.2001,0.2001,0.2001,0,0.1739,0.1765,0.1784,0.18,0.1814,0.1832,0.1846,0.1861,0.189,0.1899,0.1901,0.1942,0.1958,0.1982,0.1984,0.1993,0.1999,0.1997,0.2007,0.2007,0.2008,0.2012,0.2013,0.2,0.2,0.2,0.2001,0,0.1753,0.177,0.1778,0.1806,0.182,0.1835,0.1858,0.187,0.1881,0.1897,0.1919,0.194,0.1963,0.197,0.1981,0.1996,0.1997,0.2003,0.2007,0.2008,0.2011,0.2013,0.1999,0.2,0.2,0.2,0,0,0.1739,0.178,0.1782,0.1796,0.1825,0.1839,0.1856,0.1879,0.1889,0.1909,0.1924,0.1951,0.1957,0.1971,0.1984,0.1994,0.2,0.1999,0.2,0.1999,0.2019,0.2014,0.2016,0.2007,0.2007,0.2007,0.2017,0,0.1743,0.1774,0.1792,0.1815,0.1832,0.185,0.1865,0.1885,0.19,0.1917,0.1934,0.1953,0.1959,0.1968,0.1979,0.1997,0.2004,0.1996,0.2021,0.2022,0.2015,0.2017,0.2012,0.202,0.2019,0.2019,0.2019,0,0.1752,0.1772,0.1797,0.1825,0.1833,0.1846,0.187,0.1885,0.1909,0.1919,0.1936,0.195,0.1969,0.1971,0.1998,0.1992,0.2004,0.2014,0.2015,0.2018,0.2021,0.2021,0.2023,0.2025,0.2021,0.2021,0.2021,0,0.1741,0.1774,0.1794,0.1805,0.1838,0.1847,0.1862,0.1885,0.1898,0.1919,0.1928,0.1951,0.1963,0.1981,0.2001,0.2001,0.2026,0.203,0.2036,0.2035,0.204,0.2039,0.2044,0.2047,0.2047,0.2047,0.2047,0,0.1743,0.1758,0.1789,0.1801,0.1819,0.184,0.1857,0.1873,0.1894,0.191,0.1927,0.1941,0.1966,0.1984,0.2,0.202,0.2026,0.2035,0.2039,0.2034,0.2033,0.2042,0.2042,0.2047,0.2047,0.2047,0.2047,0,0.1734,0.1755,0.1778,0.1808,0.1817,0.1828,0.1854,0.1867,0.1884,0.1904,0.191,0.1936,0.1958,0.198,0.2009,0.202,0.204,0.2045,0.2033,0.2035,0.204,0.2039,0.2051,0.2054,0.2054,0.2054,0.2054,0,0.1734,0.1746,0.1778,0.179,0.1804,0.1823,0.1838,0.186,0.1874,0.1902,0.1912,0.1935,0.1955,0.199,0.2012,0.2035,0.2041,0.2043,0.2044,0.2039,0.2042,0.2041,0.2043,0.2043,0.2043,0.2043,0.2043,0,0.1733,0.1743,0.1763,0.1787,0.1803,0.1823,0.1843,0.1852,0.1879,0.1894,0.1917,0.1932,0.1963,0.1986,0.2012,0.2028,0.204,0.2042,0.2045,0.204,0.2032,0.2037,0.2032,0.2042,0.2042,0.2042,0.2042,0.2042,0.1729,0.1741,0.1765,0.1787,0.1805,0.1824,0.1838,0.1857,0.1877,0.1904,0.1916,0.1939,0.1964,0.2,0.2015,0.2034,0.2037,0.2041,0.2042,0.2042,0.2042,0.2029,0.2039,0.2039,0.2039,0.2039,0.2039,0,0.1729,0.1746,0.1766,0.1794,0.1812,0.1822,0.1846,0.1859,0.188,0.1902,0.1922,0.1949,0.1972,0.1996,0.2021,0.2032,0.2038,0.2037,0.2037,0.2041,0.2037,0.2033,0.2032,0.2032,0.2032,0.2032,0.2032,0.2032,0.1731,0.1752,0.1766,0.1796,0.1813,0.1837,0.185,0.1867,0.1885,0.1915,0.1934,0.195,0.1974,0.2,0.2022,0.2029,0.2038,0.2036,0.2044,0.204,0.2041,0.2041,0.2037,0.2037,0.2037,0.2046,0.2046,0.2046]},{"header":{"parameterUnit":"m.s-1","parameterCategory":1,"la1":30.2991,"la2":30.254,"lo1":-89.0895,"lo2":-89.0444,"dy":0.0017,"dx":0.0017,"nx":28,"ny":28,"refTime":"2025-01-23T09:00:00:Z","depth":0,"parameterNumber":3,"parameterNumberName":"V-component_of_WINDS"},"data":[0,0,0,0,0,0,0,0,0,0,0,0,0,0,0,0,0,0,0,0,0,0,0,0,0,0,0,0,0,0,0,0,0,0,0,0,0,0,0,0,0,0,0,0,0,0,0,0,0,0,0,0,0,0,0,0,0,0,-3.2607,-3.2608,0,-3.2684,-3.2685,-3.2686,-3.2719,-3.2719,-3.2719,-3.2719,-3.2797,-3.28,-3.2802,0,0,0,0,0,0,0,0,0,0,0,0,0,-3.249,-3.2492,-3.2607,-3.2608,-3.2609,-3.2684,-3.2685,-3.2686,-3.2719,-3.2719,-3.2719,-3.2719,-3.2797,-3.2799,-3.2802,0,0,0,0,0,0,0,0,0,0,0,0,0,-3.2551,-3.2493,-3.2607,-3.2635,-3.2638,-3.2684,-3.2685,-3.2686,-3.2719,-3.2719,-3.2719,-3.2719,-3.2796,-3.2799,-3.2802,-3.2826,0,0,-3.2812,-3.2814,0,0,0,0,0,0,0,0,-3.2548,-3.2555,-3.263,-3.2633,-3.2637,-3.2692,-3.2672,-3.2733,-3.272,-3.2688,-3.2719,-3.2719,-3.2762,-3.2768,-3.2783,-3.2829,-3.2833,-3.2813,-3.2815,-3.2816,-3.2817,0,0,0,0,0,0,0,-3.2543,-3.2552,-3.2637,-3.2631,-3.2635,-3.2644,-3.2652,-3.2684,-3.2725,-3.2691,-3.2694,-3.2702,-3.2764,-3.278,-3.2785,-3.2834,-3.2812,-3.2815,-3.2817,-3.2819,-3.2905,-3.2905,0,0,0,0,0,0,-3.2535,-3.2549,-3.2635,-3.264,-3.2591,-3.2646,-3.2655,-3.2674,-3.2725,-3.2733,-3.2703,-3.2704,-3.2774,-3.2781,-3.2788,-3.282,-3.2816,-3.2819,-3.2821,-3.2905,-3.2905,-3.2905,0,0,0,0,0,0,-3.2532,-3.2542,-3.2632,-3.2595,-3.2607,-3.2648,-3.2669,-3.2676,-3.2692,-3.2734,-3.2741,-3.2711,-3.2775,-3.2784,-3.2817,-3.2823,-3.282,-3.2823,-3.2904,-3.2905,-3.2905,-3.2883,0,0,0,0,0,0,-3.2528,-3.2541,-3.255,-3.2595,-3.2609,-3.2659,-3.2669,-3.2678,-3.2697,-3.27,-3.2744,-3.2751,-3.2775,-3.2811,-3.282,-3.2828,-3.2826,-3.2904,-3.2904,-3.2905,-3.2884,-3.2883,-3.2883,0,0,0,0,0,-3.2524,-3.254,-3.255,-3.256,-3.2621,-3.2659,-3.2667,-3.2695,-3.2698,-3.2707,-3.2735,-3.2749,-3.2821,-3.2815,-3.2824,-3.2833,-3.2903,-3.2904,-3.2905,-3.2884,-3.2883,-3.2883,0,0,0,0,0,0,-3.2494,-3.2547,-3.2558,-3.2589,-3.2619,-3.2665,-3.2678,-3.2693,-3.2723,-3.2724,-3.2757,-3.2767,-3.2797,-3.2818,-3.281,-3.2859,-3.2864,-3.2866,-3.2844,-3.2844,-3.2843,-3.2838,-3.2829,0,0,0,0,0,-3.2491,-3.2518,-3.2562,-3.2585,-3.26,-3.2636,-3.2654,-3.2673,-3.2705,-3.2718,-3.2748,-3.2779,-3.2809,-3.2827,-3.2857,-3.2887,-3.2898,-3.2898,-3.2897,-3.2897,-3.2899,-3.2918,-3.2919,-3.2908,-3.2908,-3.2908,0,0,-3.2486,-3.2517,-3.2532,-3.258,-3.2606,-3.2633,-3.2647,-3.2674,-3.2695,-3.2722,-3.2756,-3.2778,-3.2815,-3.2847,-3.2863,-3.2866,-3.2904,-3.2898,-3.2897,-3.2899,-3.2918,-3.2919,-3.292,-3.2908,-3.2908,-3.2908,0,0,-3.2489,-3.2515,-3.2538,-3.2564,-3.2603,-3.2627,-3.2633,-3.2676,-3.2692,-3.2726,-3.2748,-3.2773,-3.2823,-3.2849,-3.2869,-3.2883,-3.2898,-3.2892,-3.2889,-3.2907,-3.2908,-3.2909,-3.2915,-3.2917,-3.2894,-3.2894,-3.2894,0,-3.2477,-3.2518,-3.2548,-3.2575,-3.2596,-3.2623,-3.2647,-3.267,-3.2717,-3.2731,-3.2734,-3.2798,-3.2825,-3.2864,-3.2868,-3.2882,-3.289,-3.2887,-3.2905,-3.2907,-3.2908,-3.2914,-3.2916,-3.2893,-3.2893,-3.2893,-3.2893,0,-3.2502,-3.253,-3.2544,-3.2589,-3.2612,-3.2637,-3.2671,-3.269,-3.2708,-3.2732,-3.2767,-3.28,-3.2837,-3.2848,-3.2864,-3.289,-3.2891,-3.2899,-3.2904,-3.2908,-3.2914,-3.2917,-3.2892,-3.2892,-3.2892,-3.2892,0,0,-3.2488,-3.255,-3.2555,-3.2576,-3.2622,-3.2644,-3.2671,-3.2708,-3.2725,-3.2756,-3.278,-3.2822,-3.2831,-3.2853,-3.2874,-3.2889,-3.29,-3.2896,-3.2898,-3.2896,-3.2931,-3.2925,-3.2927,-3.291,-3.2911,-3.2911,-3.2928,0,-3.2498,-3.2548,-3.2576,-3.2614,-3.2641,-3.2667,-3.2691,-3.2722,-3.2745,-3.2772,-3.2798,-3.2828,-3.2837,-3.2851,-3.2867,-3.2895,-3.2908,-3.2894,-3.2933,-3.2934,-3.2924,-3.293,-3.2924,-3.2938,-3.2931,-3.2931,-3.2932,0,-3.2516,-3.2548,-3.2589,-3.2633,-3.2645,-3.2666,-3.2703,-3.2728,-3.2764,-3.278,-3.2806,-3.2826,-3.2856,-3.2858,-3.2901,-3.2891,-3.2909,-3.2925,-3.2926,-3.2932,-3.2933,-3.2936,-3.2943,-3.2945,-3.2936,-3.2935,-3.2935,0,-3.2503,-3.2556,-3.2588,-3.2605,-3.2657,-3.2671,-3.2693,-3.2729,-3.275,-3.2782,-3.2796,-3.2831,-3.2851,-3.2878,-3.2907,-3.2906,-3.2947,-3.2952,-3.2962,-3.2961,-3.2969,-3.2968,-3.298,-3.2979,-3.2979,-3.2979,-3.2979,0,-3.2512,-3.2536,-3.2583,-3.2602,-3.263,-3.2663,-3.269,-3.2714,-3.2746,-3.2771,-3.2796,-3.2819,-3.2856,-3.2884,-3.2908,-3.294,-3.2948,-3.2962,-3.2968,-3.2961,-3.2959,-3.2973,-3.2973,-3.298,-3.298,-3.298,-3.298,0,-3.2502,-3.2534,-3.257,-3.2617,-3.2629,-3.2648,-3.2688,-3.2708,-3.2733,-3.2765,-3.2774,-3.2814,-3.2848,-3.288,-3.2925,-3.2941,-3.2974,-3.2981,-3.2962,-3.2965,-3.2974,-3.2973,-3.2995,-3.3,-3.2995,-3.2995,-3.2995,0,-3.2505,-3.2525,-3.2574,-3.2592,-3.2614,-3.2644,-3.2666,-3.2699,-3.2721,-3.2764,-3.2779,-3.2815,-3.2846,-3.29,-3.2932,-3.2968,-3.2977,-3.2982,-3.2982,-3.2974,-3.2978,-3.2977,-3.2979,-3.2981,-3.2981,-3.2981,-3.2981,0,-3.2509,-3.2524,-3.2554,-3.2591,-3.2617,-3.2647,-3.2678,-3.2692,-3.2731,-3.2754,-3.279,-3.2814,-3.2861,-3.2897,-3.2937,-3.296,-3.2977,-3.2981,-3.2985,-3.2978,-3.2966,-3.2973,-3.2961,-3.298,-3.298,-3.298,-3.298,-3.298,-3.2506,-3.2525,-3.2563,-3.2596,-3.2624,-3.2652,-3.2674,-3.2703,-3.2733,-3.2774,-3.2792,-3.2828,-3.2865,-3.292,-3.2943,-3.2972,-3.2976,-3.2982,-3.2984,-3.2985,-3.2984,-3.2961,-3.2979,-3.2979,-3.298,-3.298,-3.298,0,-3.2511,-3.2537,-3.2568,-3.2611,-3.2638,-3.2653,-3.2688,-3.271,-3.2741,-3.2774,-3.2804,-3.2846,-3.2882,-3.2918,-3.2955,-3.2972,-3.2981,-3.2981,-3.298,-3.2985,-3.2978,-3.2971,-3.2973,-3.2973,-3.2973,-3.2973,-3.2973,-3.2973,-3.2517,-3.255,-3.2571,-3.2618,-3.2644,-3.268,-3.2699,-3.2726,-3.2753,-3.2799,-3.2828,-3.2852,-3.2887,-3.2927,-3.296,-3.297,-3.2983,-3.2981,-3.2993,-3.2985,-3.2986,-3.2986,-3.2979,-3.2983,-3.2983,-3.2998,-3.2998,-3.2999]}]]